Time,TemperatureF,DewpointF,PressureIn,WindDirection,WindDirectionDegrees,WindSpeedMPH,WindSpeedGustMPH,Humidity,HourlyPrecipIn,Conditions,Clouds,dailyrainin,SoftwareType,DateUTC
2013-10-12 00:14:00,-999.0,-99.9,30.00,NE,51,0.0,-999.0,-999,-99.99,,,0.00,weatherlink.com 1.10,2013-10-12 04:14:00,
2013-10-12 00:29:00,-999.0,-99.9,30.00,NE,51,0.0,-999.0,-999,-99.99,,,0.00,weatherlink.com 1.10,2013-10-12 04:29:00,
2013-10-12 00:44:00,-999.0,-99.9,30.00,NE,51,0.0,-999.0,-999,-99.99,,,0.00,weatherlink.com 1.10,2013-10-12 04:44:00,
2013-10-12 00:59:00,-999.0,-99.9,30.00,NE,38,0.0,-999.0,-999,-99.99,,,0.00,weatherlink.com 1.10,2013-10-12 04:59:00,
2013-10-12 01:14:00,-999.0,-99.9,30.00,NE,51,0.0,-999.0,-999,-99.99,,,0.00,weatherlink.com 1.10,2013-10-12 05:14:00,
2013-10-12 01:29:00,-999.0,-99.9,30.00,NE,51,0.0,-999.0,-999,-99.99,,,0.00,weatherlink.com 1.10,2013-10-12 05:29:00,
2013-10-12 01:44:00,-999.0,-99.9,30.01,NE,51,0.0,-999.0,-999,-99.99,,,0.00,weatherlink.com 1.10,2013-10-12 05:44:00,
2013-10-12 01:59:00,-999.0,-99.9,30.00,NE,51,0.0,-999.0,-999,-99.99,,,0.00,weatherlink.com 1.10,2013-10-12 05:59:00,
2013-10-12 02:14:00,-999.0,-99.9,30.01,NE,39,0.0,-999.0,-999,-99.99,,,0.00,weatherlink.com 1.10,2013-10-12 06:14:00,
2013-10-12 02:29:00,-999.0,-99.9,30.01,NE,40,1.0,-999.0,-999,-99.99,,,0.00,weatherlink.com 1.10,2013-10-12 06:29:00,
2013-10-12 02:44:00,-999.0,-99.9,30.01,NE,39,0.0,-999.0,-999,-99.99,,,0.00,weatherlink.com 1.10,2013-10-12 06:44:00,
2013-10-12 02:59:00,-999.0,-99.9,30.01,NE,39,0.0,-999.0,-999,-99.99,,,0.00,weatherlink.com 1.10,2013-10-12 06:59:00,
2013-10-12 03:14:00,-999.0,-99.9,30.01,NE,39,0.0,-999.0,-999,-99.99,,,0.00,weatherlink.com 1.10,2013-10-12 07:14:00,
2013-10-12 03:29:00,-999.0,-99.9,30.01,NNE,17,0.0,-999.0,-999,-99.99,,,0.00,weatherlink.com 1.10,2013-10-12 07:29:00,
2013-10-12 03:44:00,-999.0,-99.9,30.02,NNE,15,0.0,-999.0,-999,-99.99,,,0.00,weatherlink.com 1.10,2013-10-12 07:44:00,
2013-10-12 03:59:00,-999.0,-99.9,30.02,North,10,0.0,-999.0,-999,-99.99,,,0.00,weatherlink.com 1.10,2013-10-12 07:59:00,
2013-10-12 04:14:00,-999.0,-99.9,30.02,NNE,24,1.0,-999.0,-999,-99.99,,,0.00,weatherlink.com 1.10,2013-10-12 08:14:00,
2013-10-12 04:29:00,-999.0,-99.9,30.02,NNE,32,1.0,-999.0,-999,-99.99,,,0.00,weatherlink.com 1.10,2013-10-12 08:29:00,
2013-10-12 04:44:00,-999.0,-99.9,30.03,NNE,27,0.0,-999.0,-999,-99.99,,,0.00,weatherlink.com 1.10,2013-10-12 08:44:00,
2013-10-12 04:59:00,-999.0,-99.9,30.03,NNE,28,0.0,-999.0,-999,-99.99,,,0.00,weatherlink.com 1.10,2013-10-12 08:59:00,
2013-10-12 05:14:00,-999.0,-99.9,30.03,NNE,26,1.0,-999.0,-999,-99.99,,,0.00,weatherlink.com 1.10,2013-10-12 09:14:00,
2013-10-12 05:29:00,-999.0,-99.9,30.04,NNE,26,0.0,-999.0,-999,-99.99,,,0.00,weatherlink.com 1.10,2013-10-12 09:29:00,
2013-10-12 05:44:00,-999.0,-99.9,30.04,NNE,26,0.0,-999.0,-999,-99.99,,,0.00,weatherlink.com 1.10,2013-10-12 09:44:00,
2013-10-12 05:59:00,-999.0,-99.9,30.05,NNE,26,0.0,-999.0,-999,-99.99,,,0.00,weatherlink.com 1.10,2013-10-12 09:59:00,
2013-10-12 06:14:00,-999.0,-99.9,30.05,NNE,26,0.0,-999.0,-999,-99.99,,,0.00,weatherlink.com 1.10,2013-10-12 10:14:00,
2013-10-12 06:29:00,-999.0,-99.9,30.05,ENE,64,0.0,-999.0,-999,-99.99,,,0.00,weatherlink.com 1.10,2013-10-12 10:29:00,
2013-10-12 06:44:00,-999.0,-99.9,30.05,ENE,64,0.0,-999.0,-999,-99.99,,,0.00,weatherlink.com 1.10,2013-10-12 10:44:00,
2013-10-12 06:59:00,-999.0,-99.9,30.06,ENE,61,0.0,-999.0,-999,-99.99,,,0.00,weatherlink.com 1.10,2013-10-12 10:59:00,
2013-10-12 07:14:00,-999.0,-99.9,30.07,NE,49,0.0,-999.0,-999,-99.99,,,0.00,weatherlink.com 1.10,2013-10-12 11:14:00,
2013-10-12 07:29:00,-999.0,-99.9,30.08,NE,46,0.0,-999.0,-999,-99.99,,,0.00,weatherlink.com 1.10,2013-10-12 11:29:00,
2013-10-12 07:44:00,-999.0,-99.9,30.08,NE,46,0.0,-999.0,-999,-99.99,,,0.00,weatherlink.com 1.10,2013-10-12 11:44:00,
2013-10-12 08:01:00,-999.0,-99.9,30.09,NE,46,0.0,-999.0,-999,-99.99,,,0.00,weatherlink.com 1.10,2013-10-12 12:01:00,
2013-10-12 08:14:00,-999.0,-99.9,30.09,NE,46,0.0,-999.0,-999,-99.99,,,0.00,weatherlink.com 1.10,2013-10-12 12:14:00,
2013-10-12 08:29:00,-999.0,-99.9,30.11,NE,46,0.0,-999.0,-999,-99.99,,,0.00,weatherlink.com 1.10,2013-10-12 12:29:00,
2013-10-12 08:44:00,-999.0,-99.9,30.11,ENE,61,0.0,-999.0,-999,-99.99,,,0.00,weatherlink.com 1.10,2013-10-12 12:44:00,
2013-10-12 08:59:00,-999.0,-99.9,30.11,ENE,65,1.0,-999.0,-999,-99.99,,,0.00,weatherlink.com 1.10,2013-10-12 12:59:00,
2013-10-12 09:14:00,-999.0,-99.9,30.11,NE,56,0.0,-999.0,-999,-99.99,,,0.00,weatherlink.com 1.10,2013-10-12 13:14:00,
2013-10-12 09:29:00,55.9,55.0,30.11,ENE,71,0.0,-999.0,97,-99.99,,,0.00,weatherlink.com 1.10,2013-10-12 13:29:00,
2013-10-12 09:44:00,56.7,56.0,30.12,ENE,65,4.0,-999.0,96,-99.99,,,0.00,weatherlink.com 1.10,2013-10-12 13:44:00,
2013-10-12 09:59:00,58.0,55.0,30.13,NE,53,3.0,-999.0,91,-99.99,,,0.00,weatherlink.com 1.10,2013-10-12 13:59:00,
2013-10-12 10:14:00,58.7,55.0,30.13,ENE,69,1.0,-999.0,86,-99.99,,,0.00,weatherlink.com 1.10,2013-10-12 14:14:00,
2013-10-12 10:29:00,59.2,54.0,30.13,ENE,59,2.0,-999.0,84,-99.99,,,0.00,weatherlink.com 1.10,2013-10-12 14:29:00,
2013-10-12 10:44:00,59.3,54.0,30.14,SE,132,4.0,-999.0,83,-99.99,,,0.00,weatherlink.com 1.10,2013-10-12 14:44:00,
2013-10-12 10:59:00,59.5,54.0,30.14,ENE,66,1.0,-999.0,83,-99.99,,,0.00,weatherlink.com 1.10,2013-10-12 14:59:00,
2013-10-12 11:14:00,59.6,54.0,30.14,East,95,5.0,-999.0,83,-99.99,,,0.00,weatherlink.com 1.10,2013-10-12 15:14:00,
2013-10-12 11:29:00,59.5,54.0,30.14,ENE,61,1.0,-999.0,82,-99.99,,,0.00,weatherlink.com 1.10,2013-10-12 15:29:00,
2013-10-12 11:44:00,59.3,54.0,30.15,ENE,77,2.0,-999.0,81,-99.99,,,0.00,weatherlink.com 1.10,2013-10-12 15:44:00,
2013-10-12 11:59:00,59.0,53.0,30.15,East,82,2.0,-999.0,81,-99.99,,,0.00,weatherlink.com 1.10,2013-10-12 15:59:00,
2013-10-12 12:14:00,58.9,53.0,30.16,East,85,0.0,-999.0,81,-99.99,,,0.00,weatherlink.com 1.10,2013-10-12 16:14:00,
2013-10-12 12:29:00,59.3,54.0,30.15,North,360,4.0,-999.0,81,-99.99,,,0.00,weatherlink.com 1.10,2013-10-12 16:29:00,
2013-10-12 12:44:00,59.2,53.0,30.16,ESE,107,0.0,-999.0,80,-99.99,,,0.00,weatherlink.com 1.10,2013-10-12 16:44:00,
2013-10-12 12:59:00,59.0,53.0,30.15,ENE,69,1.0,-999.0,81,-99.99,,,0.00,weatherlink.com 1.10,2013-10-12 16:59:00,
2013-10-12 13:14:00,58.7,53.0,30.15,North,351,1.0,-999.0,81,-99.99,,,0.00,weatherlink.com 1.10,2013-10-12 17:14:00,
2013-10-12 13:29:00,58.6,53.0,30.15,ENE,78,2.0,-999.0,82,-99.99,,,0.00,weatherlink.com 1.10,2013-10-12 17:29:00,
2013-10-12 13:44:00,58.4,53.0,30.15,ESE,122,0.0,-999.0,83,-99.99,,,0.00,weatherlink.com 1.10,2013-10-12 17:44:00,
2013-10-12 13:59:00,58.3,54.0,30.15,ESE,117,2.0,-999.0,84,-99.99,,,0.00,weatherlink.com 1.10,2013-10-12 17:59:00,
2013-10-12 14:14:00,58.0,54.0,30.15,ENE,63,2.0,-999.0,85,-99.99,,,0.00,weatherlink.com 1.10,2013-10-12 18:14:00,
2013-10-12 14:29:00,58.0,54.0,30.16,NE,49,4.0,-999.0,86,-99.99,,,0.00,weatherlink.com 1.10,2013-10-12 18:29:00,
2013-10-12 14:44:00,57.8,54.0,30.16,ENE,69,0.0,-999.0,86,-99.99,,,0.00,weatherlink.com 1.10,2013-10-12 18:44:00,
2013-10-12 14:59:00,-999.0,-99.9,30.16,East,95,2.0,-999.0,-999,-99.99,,,0.00,weatherlink.com 1.10,2013-10-12 18:59:00,
2013-10-12 15:14:00,-999.0,-99.9,30.16,NE,51,0.0,-999.0,-999,-99.99,,,0.00,weatherlink.com 1.10,2013-10-12 19:14:00,
2013-10-12 15:29:00,-999.0,-99.9,30.17,ENE,64,0.0,-999.0,-999,-99.99,,,0.00,weatherlink.com 1.10,2013-10-12 19:29:00,
2013-10-12 15:44:00,-999.0,-99.9,30.16,NE,43,1.0,-999.0,-999,-99.99,,,0.00,weatherlink.com 1.10,2013-10-12 19:44:00,
2013-10-12 15:59:00,-999.0,-99.9,30.16,NE,49,2.0,-999.0,-999,-99.99,,,0.00,weatherlink.com 1.10,2013-10-12 19:59:00,
2013-10-12 16:14:00,-999.0,-99.9,30.17,ENE,59,0.0,-999.0,-999,-99.99,,,0.00,weatherlink.com 1.10,2013-10-12 20:14:00,
2013-10-12 16:29:00,-999.0,-99.9,30.17,ENE,71,2.0,-999.0,-999,-99.99,,,0.00,weatherlink.com 1.10,2013-10-12 20:29:00,
2013-10-12 16:44:00,-999.0,-99.9,30.17,East,87,2.0,-999.0,-999,-99.99,,,0.00,weatherlink.com 1.10,2013-10-12 20:44:00,
2013-10-12 16:59:00,-999.0,-99.9,30.17,East,80,0.0,-999.0,-999,-99.99,,,0.00,weatherlink.com 1.10,2013-10-12 20:59:00,
2013-10-12 17:14:00,-999.0,-99.9,30.18,ENE,76,5.0,-999.0,-999,-99.99,,,0.00,weatherlink.com 1.10,2013-10-12 21:14:00,
2013-10-12 17:29:00,-999.0,-99.9,30.18,ENE,71,0.0,-999.0,-999,-99.99,,,0.00,weatherlink.com 1.10,2013-10-12 21:29:00,
2013-10-12 17:44:00,-999.0,-99.9,30.19,ENE,67,2.0,-999.0,-999,-99.99,,,0.00,weatherlink.com 1.10,2013-10-12 21:44:00,
2013-10-12 17:59:00,-999.0,-99.9,30.19,East,79,0.0,-999.0,-999,-99.99,,,0.00,weatherlink.com 1.10,2013-10-12 21:59:00,
2013-10-12 18:14:00,-999.0,-99.9,30.19,NE,53,1.0,-999.0,-999,-99.99,,,0.00,weatherlink.com 1.10,2013-10-12 22:14:00,
2013-10-12 18:29:00,-999.0,-99.9,30.19,NE,48,1.0,-999.0,-999,-99.99,,,0.00,weatherlink.com 1.10,2013-10-12 22:29:00,
2013-10-12 18:44:00,-999.0,-99.9,30.19,NE,48,0.0,-999.0,-999,-99.99,,,0.00,weatherlink.com 1.10,2013-10-12 22:44:00,
2013-10-12 18:59:00,-999.0,-99.9,30.19,NE,56,2.0,-999.0,-999,-99.99,,,0.00,weatherlink.com 1.10,2013-10-12 22:59:00,
2013-10-12 19:14:00,-999.0,-99.9,30.20,ENE,57,0.0,-999.0,-999,-99.99,,,0.00,weatherlink.com 1.10,2013-10-12 23:14:00,
2013-10-12 19:29:00,-999.0,-99.9,30.20,NE,53,0.0,-999.0,-999,-99.99,,,0.00,weatherlink.com 1.10,2013-10-12 23:29:00,
2013-10-12 19:44:00,-999.0,-99.9,30.20,NE,41,0.0,-999.0,-999,-99.99,,,0.00,weatherlink.com 1.10,2013-10-12 23:44:00,
2013-10-12 19:59:00,-999.0,-99.9,30.21,ENE,65,2.0,-999.0,-999,-99.99,,,0.00,weatherlink.com 1.10,2013-10-12 23:59:00,
2013-10-12 20:14:00,-999.0,-99.9,30.21,NE,46,0.0,-999.0,-999,-99.99,,,0.00,weatherlink.com 1.10,2013-10-13 00:14:00,
2013-10-12 20:29:00,-999.0,-99.9,30.21,ENE,57,0.0,-999.0,-999,-99.99,,,0.00,weatherlink.com 1.10,2013-10-13 00:29:00,
2013-10-12 20:44:00,-999.0,-99.9,30.21,ENE,65,2.0,-999.0,-999,-99.99,,,0.00,weatherlink.com 1.10,2013-10-13 00:44:00,
2013-10-12 20:59:00,-999.0,-99.9,30.22,ENE,65,0.0,-999.0,-999,-99.99,,,0.00,weatherlink.com 1.10,2013-10-13 00:59:00,
2013-10-12 21:14:00,-999.0,-99.9,30.22,ENE,57,0.0,-999.0,-999,-99.99,,,0.00,weatherlink.com 1.10,2013-10-13 01:14:00,
2013-10-12 21:29:00,-999.0,-99.9,30.22,ENE,57,0.0,-999.0,-999,-99.99,,,0.00,weatherlink.com 1.10,2013-10-13 01:29:00,
2013-10-12 21:44:00,-999.0,-99.9,30.22,ENE,57,0.0,-999.0,-999,-99.99,,,0.00,weatherlink.com 1.10,2013-10-13 01:44:00,
2013-10-12 21:59:00,-999.0,-99.9,30.22,ENE,57,0.0,-999.0,-999,-99.99,,,0.00,weatherlink.com 1.10,2013-10-13 01:59:00,
2013-10-12 22:14:00,-999.0,-99.9,30.23,ENE,57,0.0,-999.0,-999,-99.99,,,0.00,weatherlink.com 1.10,2013-10-13 02:14:00,
2013-10-12 22:29:00,-999.0,-99.9,30.23,ENE,74,0.0,-999.0,-999,-99.99,,,0.00,weatherlink.com 1.10,2013-10-13 02:29:00,
2013-10-12 22:44:00,-999.0,-99.9,30.23,ENE,66,1.0,-999.0,-999,-99.99,,,0.00,weatherlink.com 1.10,2013-10-13 02:44:00,
2013-10-12 22:59:00,-999.0,-99.9,30.23,ENE,59,0.0,-999.0,-999,-99.99,,,0.00,weatherlink.com 1.10,2013-10-13 02:59:00,
2013-10-12 23:14:00,-999.0,-99.9,30.23,ENE,59,0.0,-999.0,-999,-99.99,,,0.00,weatherlink.com 1.10,2013-10-13 03:14:00,
2013-10-12 23:29:00,-999.0,-99.9,30.23,East,81,0.0,-999.0,-999,-99.99,,,0.00,weatherlink.com 1.10,2013-10-13 03:29:00,
2013-10-12 23:44:00,-999.0,-99.9,30.23,NE,45,0.0,-999.0,-999,-99.99,,,0.00,weatherlink.com 1.10,2013-10-13 03:44:00,
2013-10-12 23:59:00,-999.0,-99.9,30.23,NE,43,0.0,-999.0,-999,-99.99,,,0.00,weatherlink.com 1.10,2013-10-13 03:59:00,